Location: Mountain View
(37.3861°N, 122.0839°W)
Time: 09:21:34
(UTC-07:00)

ARIANE 6 FM1 Upper Stage - Visible Passes

Search period start: 10 May 2026 00:00
Search period end: 20 May 2026 00:00
Orbit: 526 x 602 km, 62.0° (Epoch: 10 May)

Date Brightness Start Highest point End Pass type
(mag) Time Alt. Az. Time Alt. Az. Time Alt. Az.
10 May 4.0 20:49:36 10° NW 20:53:13 34° WSW 20:56:50 10° S visible
11 May 4.7 20:49:28 10° WNW 20:52:36 23° WSW 20:55:44 10° SSW visible
12 May 5.2 20:49:42 10° WNW 20:51:57 15° WSW 20:54:13 10° SSW visible
